Regional Weather Roundup
Issued by NWS

Home | Current Version | Previous Version | Text Only | Print | Product List | Glossary Off
Versions: 1 2 3 4 5 6 7 8 9 10 11 12 13 14 15 16 17 18 19 20 21 22 23 24 25 26 27 28 29 30 31 32 33 34 35 36 37 38 39 40 41 42 43 44 45 46 47 48 49 50

000
ASUS43 KDTX 310510
RWRMI
MICHIGAN HOURLY REGIONAL WEATHER ROUNDUP
NATIONAL WEATHER SERVICE DETROIT/PONTIAC MI
1200 AM EST SAT JAN 31 2015

NOTE: "FAIR" INDICATES FEW OR NO CLOUDS BELOW 12,000 FEET WITH NO
SIGNIFICANT WEATHER AND/OR OBSTRUCTION TO VISIBILITY.

MIZ047>049-052>055-059>063-066>070-074>076-081>083-310600-
SOUTHEAST LOWER MICHIGAN

CITY           SKY/WX    TMP DP  RH WIND       PRES   REMARKS
ADRIAN         PTCLDY    16  10  77 CALM      30.39F
ALMA           PTCLDY    15  10  79 CALM      30.36S
ANN ARBOR      MOCLDY    12   9  87 CALM      30.38F
BAD AXE        PTCLDY     5   0  79 S3        30.36F
CARO           MOCLDY     4   1  85 CALM      30.36F
DETROIT CITY   CLOUDY    13   2  61 S3        30.40F
DETROIT        MOCLDY    13   5  70 CALM      30.41F
FLINT          MOCLDY    16   5  62 S7        30.37S WCI   6
GROSSE ILE     PTCLDY    12   7  79 CALM      30.40S
HILLSDALE      PTCLDY    14  10  85 CALM      30.35S
HOWELL         PTCLDY    15   8  73 S5        30.35F WCI   7

CITY           SKY/WX    TMP DP  RH WIND       PRES   REMARKS
JACKSON        MOCLDY    16   9  74 CALM      30.36F
LAMBERTVILLE   MOCLDY    19  12  73 CALM      30.41S
LANSING        MOCLDY    17  10  74 SW5       30.37S WCI  10
LAPEER         CLOUDY     3   0  86 CALM      30.37S
MASON          MOCLDY    17  10  75 CALM      30.36S
MONROE         MOCLDY    16  12  86 CALM      30.39S
MT. CLEMENS    CLEAR      8   1  74 S8        30.38F WCI  -4
PONTIAC        MOCLDY    11   4  73 CALM      30.36S
PORT HOPE        N/A     11   0  61 SW5       30.35F WCI   3
PORT HURON     CLOUDY     5   0  78 CALM      30.39F
TRI CITIES     PTCLDY    15   6  67 SW3       30.36F
TROY           MOCLDY    16   4  61 S3        30.41S
SAGINAW HB     PTCLDY    14   9  79 S6        30.37S WCI   5
$$
MIZ043>046-050>051-056>058-064>065-071>073-077>080-310600-
SOUTHWEST LOWER MICHIGAN

CITY           SKY/WX    TMP DP  RH WIND       PRES   REMARKS
BATTLE CREEK   CLEAR     18  10  71 S5        30.36F WCI  11
BENTON HARBOR  CLEAR     14  12  92 CALM      30.37F
BIG RAPIDS     CLOUDY    12   8  85 CALM      30.32S
COLDWATER      CLEAR     12  10  91 CALM      30.36F
FREMONT        CLOUDY    15   8  74 CALM      30.34S
HOLLAND        MOCLDY    19  13  77 S5        30.36F WCI  12
GRAND RAPIDS   CLOUDY    18  12  77 S6        30.36S WCI  10
IONIA          CLOUDY    19  14  80 SW3       30.35S
KALAMAZOO      CLEAR     18  12  77 S5        30.36F WCI  11
LUDINGTON      CLOUDY    18  11  74 SE5       30.32F WCI  11
MARSHALL       PTCLDY    12   8  84 CALM      30.36S
MOUNT PLEASANT MOCLDY    10   7  85 CALM      30.34F
MUSKEGON       CLOUDY    19  11  70 SE7       30.35F WCI  10
SOUTH HAVEN    MOCLDY    20  15  79 S3        30.37S
$$
MIZ016>042-310600-
NORTHERN LOWER MICHIGAN

CITY           SKY/WX    TMP DP  RH WIND       PRES   REMARKS
ALPENA         CLOUDY    11   3  70 S3        30.33F
BEAVER ISLAND  CLOUDY    12   8  82 CALM      30.28F
CADILLAC       CLOUDY    11   6  82 CALM      30.27F
CHARLEVOIX     FLURRIES  18  12  77 S3        30.33S
FRANKFORT      CLOUDY    18  12  79 SE5       30.31F WCI  11
GAYLORD        CLOUDY    11   7  84 SW8       30.26S WCI  -1
GRAYLING       PTCLDY     5   2  87 CALM      30.30S
HARBOR SPRINGS CLOUDY    15  10  80 CALM      30.29F
HOUGHTON LAKE  PTCLDY     6   2  83 CALM      30.30F
MANISTEE       CLOUDY    16   7  67 SE6       30.32F WCI   7
OSCODA         CLOUDY     7   2  80 SW3       30.35F
PELLSTON       CLOUDY    13   9  84 S3        30.30F
ROGERS CITY    CLOUDY    14   7  73 S6        30.33S WCI   5
TRAVERSE CITY  CLOUDY    16   8  71 CALM      30.31F
$$
MIZ007>008-015-310600-
EASTERN UPPER MICHIGAN

CITY           SKY/WX    TMP DP  RH WIND       PRES   REMARKS
KINROSS        CLOUDY    10   9  92 SW3       30.27F
MACKINAC ISLAN CLOUDY    15  10  79 S6        30.28F WCI   6
NEWBERRY       CLOUDY    10   6  85 S3        30.24F
S. S. MARIE    LGT SNOW  11   4  73 CALM      30.26F
MUNISING         N/A     15   8  73 S6        30.23F WCI   6
$$
MIZ004>006-011>014-085-310600-
CENTRAL UPPER MICHIGAN

CITY           SKY/WX    TMP DP  RH WIND       PRES   REMARKS
MANISTIQUE     CLOUDY    19  12  74 SW8G18    30.26F WCI   8
ESCANABA       CLOUDY    18   9  68 SW7       30.27F WCI   8
MENOMINEE      CLOUDY    19  10  68 SW5       30.27F WCI  13
SAWYER-GWINN   LGT SNOW  13   9  85 SW9       30.17F WCI   1
$$
MIZ001>003-009>011-084-310600-
WESTERN UPPER MICHIGAN

CITY           SKY/WX    TMP DP  RH WIND       PRES   REMARKS
IRON MOUNTAIN  CLOUDY    16   8  71 S3        30.19F
HOUGHTON       LGT SNOW  14  10  84 SW5       30.15S FOG     WCI   6
COPPER HARBOR    N/A     17  10  74 W8        30.18F WCI   7
IRONWOOD       CLOUDY    18   7  62 SW9       30.13F WCI   6
$$

ABBREVIATIONS USED IN REMARKS
   TC - TEMPERATURE IN CELSIUS
  WCI - WIND CHILL INDEX
   HX - HEAT INDEX
  VSB - VISIBILITY



USA.gov is the U.S. government's official web portal to all federal, state and local government web resources and services.